Time,TemperatureF,DewpointF,PressureIn,WindDirection,WindDirectionDegrees,WindSpeedMPH,WindSpeedGustMPH,Humidity,HourlyPrecipIn,Conditions,Clouds,dailyrainin,SoftwareType,DateUTC
2013-09-28 00:04:00,68.0,61.2,29.00,North,0,0.0,0.0,79,0.00,,---,0.00,VWS V14.00,2013-09-28 04:04:00,
2013-09-28 00:07:00,68.0,61.2,29.00,North,0,0.0,0.0,79,0.00,,---,0.00,VWS V14.00,2013-09-28 04:07:00,
2013-09-28 00:10:00,67.8,61.1,29.00,North,0,0.0,0.0,79,0.00,,---,0.00,VWS V14.00,2013-09-28 04:10:00,
2013-09-28 00:16:00,67.8,61.4,29.00,North,0,0.0,0.0,80,0.00,,---,0.00,VWS V14.00,2013-09-28 04:16:00,
2013-09-28 00:19:00,67.8,61.4,29.00,North,0,0.0,0.0,80,0.00,,---,0.00,VWS V14.00,2013-09-28 04:19:00,
2013-09-28 00:25:00,67.8,61.4,29.00,North,0,0.0,0.0,80,0.00,,---,0.00,VWS V14.00,2013-09-28 04:25:00,
2013-09-28 00:31:00,67.6,61.3,29.00,North,0,0.0,0.0,80,0.00,,---,0.00,VWS V14.00,2013-09-28 04:31:00,
2013-09-28 00:37:00,67.6,61.3,29.03,North,0,0.0,0.0,80,0.00,,---,0.00,VWS V14.00,2013-09-28 04:37:00,
2013-09-28 00:43:00,67.6,61.3,29.03,North,0,0.0,0.0,80,0.00,,---,0.00,VWS V14.00,2013-09-28 04:43:00,
2013-09-28 00:49:00,67.6,61.3,29.00,North,0,0.0,0.0,80,0.00,,---,0.00,VWS V14.00,2013-09-28 04:49:00,
2013-09-28 00:55:00,67.5,61.1,29.00,North,0,0.0,0.0,80,0.00,,---,0.00,VWS V14.00,2013-09-28 04:55:00,
2013-09-28 01:01:00,67.5,61.1,29.00,North,0,0.0,0.0,80,0.00,,---,0.00,VWS V14.00,2013-09-28 05:01:00,
2013-09-28 01:07:00,67.3,60.9,29.00,North,0,0.0,0.0,80,0.00,,---,0.00,VWS V14.00,2013-09-28 05:07:00,
2013-09-28 01:13:00,67.3,60.5,29.00,North,0,0.0,0.0,79,0.00,,---,0.00,VWS V14.00,2013-09-28 05:13:00,
2013-09-28 01:19:00,67.1,60.4,29.00,North,0,0.0,0.0,79,0.00,,---,0.00,VWS V14.00,2013-09-28 05:19:00,
2013-09-28 01:25:00,67.1,60.4,29.00,North,0,0.0,0.0,79,0.00,,---,0.00,VWS V14.00,2013-09-28 05:25:00,
2013-09-28 01:31:00,67.1,60.7,29.00,North,0,0.0,0.0,80,0.00,,---,0.00,VWS V14.00,2013-09-28 05:31:00,
2013-09-28 01:37:00,66.9,60.6,29.00,North,0,0.0,0.0,80,0.00,,---,0.00,VWS V14.00,2013-09-28 05:37:00,
2013-09-28 01:43:00,66.9,60.6,29.00,North,0,0.0,0.0,80,0.00,,---,0.00,VWS V14.00,2013-09-28 05:43:00,
2013-09-28 01:49:00,66.7,60.4,29.00,North,0,0.0,0.0,80,0.00,,---,0.00,VWS V14.00,2013-09-28 05:49:00,
2013-09-28 01:55:00,66.7,60.4,29.00,North,0,0.0,0.0,80,0.00,,---,0.00,VWS V14.00,2013-09-28 05:55:00,
2013-09-28 02:01:00,66.6,60.2,29.00,North,0,0.0,0.0,80,0.00,,---,0.00,VWS V14.00,2013-09-28 06:01:00,
2013-09-28 02:07:00,66.6,60.2,29.00,North,0,0.0,0.0,80,0.00,,---,0.00,VWS V14.00,2013-09-28 06:07:00,
2013-09-28 02:13:00,66.4,60.0,29.00,North,0,0.0,0.0,80,0.00,,---,0.00,VWS V14.00,2013-09-28 06:13:00,
2013-09-28 02:19:00,66.4,59.7,29.00,North,0,0.0,0.0,79,0.00,,---,0.00,VWS V14.00,2013-09-28 06:19:00,
2013-09-28 02:25:00,66.2,59.5,29.00,North,0,0.0,0.0,79,0.00,,---,0.00,VWS V14.00,2013-09-28 06:25:00,
2013-09-28 02:31:00,66.0,59.7,29.00,North,0,0.0,0.0,80,0.00,,---,0.00,VWS V14.00,2013-09-28 06:31:00,
2013-09-28 02:37:00,66.0,59.7,29.00,North,0,0.0,0.0,80,0.00,,---,0.00,VWS V14.00,2013-09-28 06:37:00,
2013-09-28 02:43:00,66.0,59.7,29.00,North,0,0.0,0.0,80,0.00,,---,0.00,VWS V14.00,2013-09-28 06:43:00,
2013-09-28 02:49:00,65.8,59.2,29.00,North,0,0.0,0.0,79,0.00,,---,0.00,VWS V14.00,2013-09-28 06:49:00,
2013-09-28 02:55:00,65.7,59.0,29.00,North,0,0.0,0.0,79,0.00,,---,0.00,VWS V14.00,2013-09-28 06:55:00,
2013-09-28 03:01:00,65.7,59.0,29.00,North,0,0.0,0.0,79,0.00,,---,0.00,VWS V14.00,2013-09-28 07:01:00,
2013-09-28 03:07:00,65.5,58.8,29.00,North,0,0.0,0.0,79,0.00,,---,0.00,VWS V14.00,2013-09-28 07:07:00,
2013-09-28 03:13:00,65.5,58.8,29.00,North,0,0.0,0.0,79,0.00,,---,0.00,VWS V14.00,2013-09-28 07:13:00,
2013-09-28 03:19:00,65.1,58.5,29.00,North,0,0.0,0.0,79,0.00,,---,0.00,VWS V14.00,2013-09-28 07:19:00,
2013-09-28 03:25:00,64.9,58.3,29.00,North,0,0.0,0.0,79,0.00,,---,0.00,VWS V14.00,2013-09-28 07:25:00,
2013-09-28 03:31:00,64.8,58.1,29.00,North,0,0.0,0.0,79,0.00,,---,0.00,VWS V14.00,2013-09-28 07:31:00,
2013-09-28 03:37:00,64.6,57.9,29.00,North,0,0.0,0.0,79,0.00,,---,0.00,VWS V14.00,2013-09-28 07:37:00,
2013-09-28 03:43:00,64.4,57.8,29.00,North,0,0.0,0.0,79,0.00,,---,0.00,VWS V14.00,2013-09-28 07:43:00,
2013-09-28 03:50:00,64.2,57.6,29.00,North,0,0.0,0.0,79,0.00,,---,0.00,VWS V14.00,2013-09-28 07:50:00,
2013-09-28 03:56:00,64.2,57.6,29.00,North,0,0.0,0.0,79,0.00,,---,0.00,VWS V14.00,2013-09-28 07:56:00,
2013-09-28 04:02:00,64.0,57.4,29.00,North,0,0.0,0.0,79,0.00,,---,0.00,VWS V14.00,2013-09-28 08:02:00,
2013-09-28 04:08:00,63.9,57.2,29.00,North,0,0.0,0.0,79,0.00,,---,0.00,VWS V14.00,2013-09-28 08:08:00,
2013-09-28 04:14:00,63.7,57.0,29.00,North,0,0.0,0.0,79,0.00,,---,0.00,VWS V14.00,2013-09-28 08:14:00,
2013-09-28 04:20:00,63.3,56.7,29.00,North,0,0.0,0.0,79,0.00,,---,0.00,VWS V14.00,2013-09-28 08:20:00,
2013-09-28 04:26:00,63.1,56.5,29.00,North,0,0.0,0.0,79,0.00,,---,0.00,VWS V14.00,2013-09-28 08:26:00,
2013-09-28 04:32:00,63.0,56.3,29.00,North,0,0.0,0.0,79,0.00,,---,0.00,VWS V14.00,2013-09-28 08:32:00,
2013-09-28 04:38:00,63.0,56.3,29.00,North,0,0.0,0.0,79,0.00,,---,0.00,VWS V14.00,2013-09-28 08:38:00,
2013-09-28 04:44:00,62.8,56.2,29.00,North,0,0.0,0.0,79,0.00,,---,0.00,VWS V14.00,2013-09-28 08:44:00,
2013-09-28 04:50:00,62.6,56.0,29.03,North,0,0.0,0.0,79,0.00,,---,0.00,VWS V14.00,2013-09-28 08:50:00,
2013-09-28 04:56:00,62.4,55.8,29.03,North,0,0.0,0.0,79,0.00,,---,0.00,VWS V14.00,2013-09-28 08:56:00,
2013-09-28 05:02:00,62.4,55.8,29.03,North,0,0.0,0.0,79,0.00,,---,0.00,VWS V14.00,2013-09-28 09:02:00,
2013-09-28 05:08:00,62.2,55.7,29.03,North,0,0.0,0.0,79,0.00,,---,0.00,VWS V14.00,2013-09-28 09:08:00,
2013-09-28 05:14:00,62.1,55.5,29.03,North,0,0.0,0.0,79,0.00,,---,0.00,VWS V14.00,2013-09-28 09:14:00,
2013-09-28 05:20:00,61.9,55.3,29.03,North,0,0.0,0.0,79,0.00,,---,0.00,VWS V14.00,2013-09-28 09:20:00,
2013-09-28 05:26:00,61.9,55.3,29.03,North,0,0.0,0.0,79,0.00,,---,0.00,VWS V14.00,2013-09-28 09:26:00,
2013-09-28 05:32:00,61.7,55.1,29.03,North,0,0.0,0.0,79,0.00,,---,0.00,VWS V14.00,2013-09-28 09:32:00,
2013-09-28 05:38:00,61.7,55.1,29.03,North,0,0.0,0.0,79,0.00,,---,0.00,VWS V14.00,2013-09-28 09:38:00,
2013-09-28 05:44:00,61.5,55.0,29.03,North,0,0.0,0.0,79,0.00,,---,0.00,VWS V14.00,2013-09-28 09:44:00,
2013-09-28 05:50:00,61.3,54.8,29.03,North,0,0.0,0.0,79,0.00,,---,0.00,VWS V14.00,2013-09-28 09:50:00,
2013-09-28 05:56:00,61.2,54.6,29.03,North,0,0.0,0.0,79,0.00,,---,0.00,VWS V14.00,2013-09-28 09:56:00,
2013-09-28 06:02:00,61.2,54.6,29.03,North,0,0.0,0.0,79,0.00,,---,0.00,VWS V14.00,2013-09-28 10:02:00,
2013-09-28 06:08:00,61.0,54.4,29.03,North,0,0.0,0.0,79,0.00,,---,0.00,VWS V14.00,2013-09-28 10:08:00,
2013-09-28 06:14:00,61.0,54.4,29.03,North,0,0.0,0.0,79,0.00,,---,0.00,VWS V14.00,2013-09-28 10:14:00,
2013-09-28 06:20:00,61.0,54.4,29.03,North,0,0.0,0.0,79,0.00,,---,0.00,VWS V14.00,2013-09-28 10:20:00,
2013-09-28 06:26:00,61.0,54.4,29.03,North,0,0.0,0.0,79,0.00,,---,0.00,VWS V14.00,2013-09-28 10:26:00,
2013-09-28 06:32:00,60.8,54.3,29.03,North,0,0.0,0.0,79,0.00,,---,0.00,VWS V14.00,2013-09-28 10:32:00,
2013-09-28 06:38:00,60.6,54.1,29.03,North,0,0.0,0.0,79,0.00,,---,0.00,VWS V14.00,2013-09-28 10:38:00,
2013-09-28 06:44:00,60.6,54.1,29.03,North,0,0.0,0.0,79,0.00,,---,0.00,VWS V14.00,2013-09-28 10:44:00,
2013-09-28 06:50:00,60.6,54.1,29.03,North,0,0.0,0.0,79,0.00,,---,0.00,VWS V14.00,2013-09-28 10:50:00,
2013-09-28 06:56:00,60.4,53.9,29.03,North,0,0.0,0.0,79,0.00,,---,0.00,VWS V14.00,2013-09-28 10:56:00,
2013-09-28 07:02:00,60.4,53.9,29.03,North,0,0.0,0.0,79,0.00,,---,0.00,VWS V14.00,2013-09-28 11:02:00,
2013-09-28 07:08:00,60.3,53.7,29.06,North,0,0.0,0.0,79,0.00,,---,0.00,VWS V14.00,2013-09-28 11:08:00,
2013-09-28 07:14:00,60.3,53.7,29.06,North,0,0.0,0.0,79,0.00,,---,0.00,VWS V14.00,2013-09-28 11:14:00,
2013-09-28 07:23:00,60.3,53.7,29.06,North,0,0.0,0.0,79,0.00,,---,0.00,VWS V14.00,2013-09-28 11:23:00,
2013-09-28 07:29:00,60.1,53.6,29.06,North,0,0.0,0.0,79,0.00,,---,0.00,VWS V14.00,2013-09-28 11:29:00,
2013-09-28 07:35:00,60.1,53.6,29.06,North,0,0.0,0.0,79,0.00,,---,0.00,VWS V14.00,2013-09-28 11:35:00,
2013-09-28 07:41:00,59.9,53.7,29.06,North,0,0.0,0.0,80,0.00,,---,0.00,VWS V14.00,2013-09-28 11:41:00,
2013-09-28 07:51:00,59.9,53.7,29.06,North,0,0.0,0.0,80,0.00,,---,0.00,VWS V14.00,2013-09-28 11:51:00,
2013-09-28 07:57:00,59.9,53.7,29.06,North,0,0.0,0.0,80,0.00,,---,0.00,VWS V14.00,2013-09-28 11:57:00,
2013-09-28 08:03:00,59.9,53.7,29.06,North,0,0.0,0.0,80,0.00,,---,0.00,VWS V14.00,2013-09-28 12:03:00,
2013-09-28 08:09:00,59.9,53.7,29.06,North,0,0.0,0.0,80,0.00,,---,0.00,VWS V14.00,2013-09-28 12:09:00,
2013-09-28 08:15:00,60.3,54.1,29.06,North,0,0.0,0.0,80,0.00,,---,0.00,VWS V14.00,2013-09-28 12:15:00,
2013-09-28 08:21:00,60.4,54.6,29.06,North,0,0.0,0.0,81,0.00,,---,0.00,VWS V14.00,2013-09-28 12:21:00,
2013-09-28 08:27:00,60.6,55.1,29.06,North,0,0.0,0.0,82,0.00,,---,0.00,VWS V14.00,2013-09-28 12:27:00,
2013-09-28 08:33:00,60.8,55.3,29.06,North,0,0.0,0.0,82,0.00,,---,0.00,VWS V14.00,2013-09-28 12:33:00,
2013-09-28 08:39:00,61.2,55.6,29.06,North,0,0.0,0.0,82,0.00,,---,0.00,VWS V14.00,2013-09-28 12:39:00,
2013-09-28 08:45:00,61.5,56.0,29.06,North,0,0.0,0.0,82,0.00,,---,0.00,VWS V14.00,2013-09-28 12:45:00,
2013-09-28 08:51:00,62.2,57.0,29.06,North,0,0.0,0.0,83,0.00,,---,0.00,VWS V14.00,2013-09-28 12:51:00,
2013-09-28 08:57:00,62.8,57.2,29.06,North,0,0.0,0.0,82,0.00,,---,0.00,VWS V14.00,2013-09-28 12:57:00,
2013-09-28 09:03:00,64.0,58.4,29.06,North,0,0.0,0.0,82,0.00,,---,0.00,VWS V14.00,2013-09-28 13:03:00,
2013-09-28 09:09:00,65.1,59.2,29.09,North,0,0.0,0.0,81,0.00,,---,0.00,VWS V14.00,2013-09-28 13:09:00,
2013-09-28 09:15:00,65.7,59.3,29.09,North,0,0.0,0.0,80,0.00,,---,0.00,VWS V14.00,2013-09-28 13:15:00,
2013-09-28 09:21:00,66.4,59.7,29.09,North,0,0.0,0.0,79,0.00,,---,0.00,VWS V14.00,2013-09-28 13:21:00,
2013-09-28 09:27:00,66.9,59.8,29.09,North,0,0.0,0.0,78,0.00,,---,0.00,VWS V14.00,2013-09-28 13:27:00,
2013-09-28 09:33:00,67.3,59.8,29.09,North,0,0.0,0.0,77,0.00,,---,0.00,VWS V14.00,2013-09-28 13:33:00,
2013-09-28 09:39:00,67.6,59.4,29.09,North,0,0.0,0.0,75,0.00,,---,0.00,VWS V14.00,2013-09-28 13:39:00,
2013-09-28 09:45:00,68.2,59.6,29.09,North,0,0.0,0.0,74,0.00,,---,0.00,VWS V14.00,2013-09-28 13:45:00,
2013-09-28 09:51:00,69.4,60.4,29.09,North,0,0.0,0.0,73,0.00,,---,0.00,VWS V14.00,2013-09-28 13:51:00,
2013-09-28 09:57:00,70.7,60.8,29.09,North,0,0.0,0.0,71,0.00,,---,0.00,VWS V14.00,2013-09-28 13:57:00,
2013-09-28 10:03:00,71.4,61.1,29.09,North,0,0.0,0.0,70,0.00,,---,0.00,VWS V14.00,2013-09-28 14:03:00,
2013-09-28 10:09:00,72.0,61.7,29.09,North,0,0.0,0.0,70,0.00,,---,0.00,VWS V14.00,2013-09-28 14:09:00,
2013-09-28 10:15:00,72.0,61.2,29.09,North,0,0.0,0.0,69,0.00,,---,0.00,VWS V14.00,2013-09-28 14:15:00,
2013-09-28 10:21:00,72.0,60.8,29.09,North,0,0.0,0.0,68,0.00,,---,0.00,VWS V14.00,2013-09-28 14:21:00,
2013-09-28 10:27:00,71.8,60.7,29.09,North,0,0.0,0.0,68,0.00,,---,0.00,VWS V14.00,2013-09-28 14:27:00,
2013-09-28 10:33:00,71.4,60.3,29.09,North,0,0.0,0.0,68,0.00,,---,0.00,VWS V14.00,2013-09-28 14:33:00,
2013-09-28 10:39:00,71.8,60.2,29.09,North,0,0.0,0.0,67,0.00,,---,0.00,VWS V14.00,2013-09-28 14:39:00,
2013-09-28 10:45:00,72.0,60.4,29.09,North,0,0.0,0.0,67,0.00,,---,0.00,VWS V14.00,2013-09-28 14:45:00,
2013-09-28 10:51:00,71.8,60.2,29.09,North,0,0.0,0.0,67,0.00,,---,0.00,VWS V14.00,2013-09-28 14:51:00,
2013-09-28 10:57:00,72.0,60.4,29.09,North,0,0.0,0.0,67,0.00,,---,0.00,VWS V14.00,2013-09-28 14:57:00,
2013-09-28 11:03:00,72.0,60.4,29.09,North,0,0.0,0.0,67,0.00,,---,0.00,VWS V14.00,2013-09-28 15:03:00,
2013-09-28 11:09:00,72.5,60.9,29.09,North,0,0.0,0.0,67,0.00,,---,0.00,VWS V14.00,2013-09-28 15:09:00,
2013-09-28 11:15:00,72.9,61.3,29.09,North,0,0.0,0.0,67,0.00,,---,0.00,VWS V14.00,2013-09-28 15:15:00,
2013-09-28 11:21:00,73.0,61.5,29.09,North,0,0.0,0.0,67,0.00,,---,0.00,VWS V14.00,2013-09-28 15:21:00,
2013-09-28 11:27:00,73.0,61.5,29.09,North,0,0.0,0.0,67,0.00,,---,0.00,VWS V14.00,2013-09-28 15:27:00,
2013-09-28 11:33:00,73.2,61.2,29.09,North,0,0.0,0.0,66,0.00,,---,0.00,VWS V14.00,2013-09-28 15:33:00,
2013-09-28 11:40:00,73.0,61.0,29.09,North,0,0.0,0.0,66,0.00,,---,0.00,VWS V14.00,2013-09-28 15:40:00,
2013-09-28 11:46:00,73.0,61.0,29.09,North,0,0.0,0.0,66,0.00,,---,0.00,VWS V14.00,2013-09-28 15:46:00,
2013-09-28 11:52:00,73.2,61.2,29.06,North,0,0.0,0.0,66,0.00,,---,0.00,VWS V14.00,2013-09-28 15:52:00,
2013-09-28 11:58:00,73.2,61.2,29.06,North,0,0.0,0.0,66,0.00,,---,0.00,VWS V14.00,2013-09-28 15:58:00,
2013-09-28 12:04:00,72.9,60.4,29.09,North,0,0.0,0.0,65,0.00,,---,0.00,VWS V14.00,2013-09-28 16:04:00,
2013-09-28 12:10:00,73.0,60.6,29.09,North,0,0.0,0.0,65,0.00,,---,0.00,VWS V14.00,2013-09-28 16:10:00,
2013-09-28 12:16:00,73.0,60.2,29.09,North,0,0.0,0.0,64,0.00,,---,0.00,VWS V14.00,2013-09-28 16:16:00,
2013-09-28 12:22:00,73.2,60.3,29.09,North,0,0.0,0.0,64,0.00,,---,0.00,VWS V14.00,2013-09-28 16:22:00,
2013-09-28 12:28:00,73.0,60.2,29.09,North,0,0.0,0.0,64,0.00,,---,0.00,VWS V14.00,2013-09-28 16:28:00,
2013-09-28 12:34:00,73.0,60.6,29.06,North,0,0.0,0.0,65,0.00,,---,0.00,VWS V14.00,2013-09-28 16:34:00,
2013-09-28 12:40:00,72.7,59.8,29.06,North,0,0.0,0.0,64,0.00,,---,0.00,VWS V14.00,2013-09-28 16:40:00,
2013-09-28 12:46:00,72.7,59.8,29.06,North,0,0.0,0.0,64,0.00,,---,0.00,VWS V14.00,2013-09-28 16:46:00,
2013-09-28 12:52:00,72.7,59.8,29.06,North,0,0.0,0.0,64,0.00,,---,0.00,VWS V14.00,2013-09-28 16:52:00,
2013-09-28 12:58:00,72.5,59.6,29.06,North,0,0.0,0.0,64,0.00,,---,0.00,VWS V14.00,2013-09-28 16:58:00,
2013-09-28 13:04:00,72.7,59.8,29.06,North,0,0.0,0.0,64,0.00,,---,0.00,VWS V14.00,2013-09-28 17:04:00,
2013-09-28 13:10:00,73.2,60.8,29.06,North,0,0.0,0.0,65,0.00,,---,0.00,VWS V14.00,2013-09-28 17:10:00,
2013-09-28 13:16:00,73.4,60.0,29.06,North,0,0.0,0.0,63,0.00,,---,0.00,VWS V14.00,2013-09-28 17:16:00,
2013-09-28 13:22:00,73.6,60.2,29.06,North,0,0.0,0.0,63,0.00,,---,0.00,VWS V14.00,2013-09-28 17:22:00,
2013-09-28 13:28:00,73.8,59.9,29.06,North,0,0.0,0.0,62,0.00,,---,0.00,VWS V14.00,2013-09-28 17:28:00,
2013-09-28 13:34:00,73.8,60.4,29.03,North,0,0.0,0.0,63,0.00,,---,0.00,VWS V14.00,2013-09-28 17:34:00,
2013-09-28 13:40:00,73.6,59.8,29.03,North,0,0.0,0.0,62,0.00,,---,0.00,VWS V14.00,2013-09-28 17:40:00,
2013-09-28 13:46:00,73.8,59.9,29.03,North,0,0.0,0.0,62,0.00,,---,0.00,VWS V14.00,2013-09-28 17:46:00,
2013-09-28 13:52:00,73.8,59.9,29.03,North,0,0.0,0.0,62,0.00,,---,0.00,VWS V14.00,2013-09-28 17:52:00,
2013-09-28 13:58:00,73.9,60.1,29.03,North,0,0.0,0.0,62,0.00,,---,0.00,VWS V14.00,2013-09-28 17:58:00,
2013-09-28 14:04:00,74.1,59.8,29.03,North,0,0.0,0.0,61,0.00,,---,0.00,VWS V14.00,2013-09-28 18:04:00,
2013-09-28 14:10:00,73.9,59.7,29.03,North,0,0.0,0.0,61,0.00,,---,0.00,VWS V14.00,2013-09-28 18:10:00,
2013-09-28 14:16:00,73.6,59.3,29.03,North,0,0.0,0.0,61,0.00,,---,0.00,VWS V14.00,2013-09-28 18:16:00,
2013-09-28 14:22:00,73.6,59.3,29.03,North,0,0.0,0.0,61,0.00,,---,0.00,VWS V14.00,2013-09-28 18:22:00,
2013-09-28 14:28:00,73.6,59.3,29.03,North,0,0.0,0.0,61,0.00,,---,0.00,VWS V14.00,2013-09-28 18:28:00,
2013-09-28 14:34:00,73.8,59.5,29.00,North,0,0.0,0.0,61,0.00,,---,0.00,VWS V14.00,2013-09-28 18:34:00,
2013-09-28 14:40:00,73.9,59.7,29.00,North,0,0.0,0.0,61,0.00,,---,0.00,VWS V14.00,2013-09-28 18:40:00,
2013-09-28 14:46:00,73.9,59.7,29.00,North,0,0.0,0.0,61,0.00,,---,0.00,VWS V14.00,2013-09-28 18:46:00,
2013-09-28 14:52:00,73.8,59.0,29.00,North,0,0.0,0.0,60,0.00,,---,0.00,VWS V14.00,2013-09-28 18:52:00,
2013-09-28 14:58:00,73.6,59.3,29.00,North,0,0.0,0.0,61,0.00,,---,0.00,VWS V14.00,2013-09-28 18:58:00,
2013-09-28 15:04:00,73.6,59.3,29.00,North,0,0.0,0.0,61,0.00,,---,0.00,VWS V14.00,2013-09-28 19:04:00,
2013-09-28 15:10:00,73.8,59.5,29.00,North,0,0.0,0.0,61,0.00,,---,0.00,VWS V14.00,2013-09-28 19:10:00,
2013-09-28 15:16:00,73.8,59.0,29.00,North,0,0.0,0.0,60,0.00,,---,0.00,VWS V14.00,2013-09-28 19:16:00,
2013-09-28 15:22:00,73.9,59.2,29.00,North,0,0.0,0.0,60,0.00,,---,0.00,VWS V14.00,2013-09-28 19:22:00,
2013-09-28 15:28:00,73.9,59.7,29.00,North,0,0.0,0.0,61,0.00,,---,0.00,VWS V14.00,2013-09-28 19:28:00,
2013-09-28 15:34:00,74.1,59.8,29.00,North,0,0.0,0.0,61,0.00,,---,0.00,VWS V14.00,2013-09-28 19:34:00,
2013-09-28 15:40:00,74.3,60.0,29.00,North,0,0.0,0.0,61,0.00,,---,0.00,VWS V14.00,2013-09-28 19:40:00,
2013-09-28 15:46:00,74.3,60.5,29.00,North,0,0.0,0.0,62,0.00,,---,0.00,VWS V14.00,2013-09-28 19:46:00,
2013-09-28 15:52:00,74.3,60.0,29.00,North,0,0.0,0.0,61,0.00,,---,0.00,VWS V14.00,2013-09-28 19:52:00,
2013-09-28 15:58:00,74.3,59.5,29.00,North,0,0.0,0.0,60,0.00,,---,0.00,VWS V14.00,2013-09-28 19:58:00,
2013-09-28 16:04:00,74.1,59.8,29.00,North,0,0.0,0.0,61,0.00,,---,0.00,VWS V14.00,2013-09-28 20:04:00,
2013-09-28 16:10:00,74.3,60.0,29.00,North,0,0.0,0.0,61,0.00,,---,0.00,VWS V14.00,2013-09-28 20:10:00,
2013-09-28 16:16:00,74.3,60.5,29.00,North,0,0.0,0.0,62,0.00,,---,0.00,VWS V14.00,2013-09-28 20:16:00,
2013-09-28 16:22:00,74.3,60.5,29.00,North,0,0.0,0.0,62,0.00,,---,0.00,VWS V14.00,2013-09-28 20:22:00,
2013-09-28 16:29:00,74.1,59.8,29.00,North,0,0.0,0.0,61,0.00,,---,0.00,VWS V14.00,2013-09-28 20:29:00,
2013-09-28 16:35:00,74.1,60.3,29.00,North,0,0.0,0.0,62,0.00,,---,0.00,VWS V14.00,2013-09-28 20:35:00,
2013-09-28 16:41:00,73.9,60.1,29.00,North,0,0.0,0.0,62,0.00,,---,0.00,VWS V14.00,2013-09-28 20:41:00,
2013-09-28 16:47:00,73.8,59.9,29.00,North,0,0.0,0.0,62,0.00,,---,0.00,VWS V14.00,2013-09-28 20:47:00,
2013-09-28 16:56:00,73.6,60.2,29.00,North,0,0.0,0.0,63,0.00,,---,0.00,VWS V14.00,2013-09-28 20:56:00,
2013-09-28 17:02:00,73.6,60.2,29.00,North,0,0.0,0.0,63,0.00,,---,0.00,VWS V14.00,2013-09-28 21:02:00,
2013-09-28 17:08:00,73.6,59.8,29.00,North,0,0.0,0.0,62,0.00,,---,0.00,VWS V14.00,2013-09-28 21:08:00,
2013-09-28 17:14:00,73.6,60.2,29.00,North,0,0.0,0.0,63,0.00,,---,0.00,VWS V14.00,2013-09-28 21:14:00,
2013-09-28 17:20:00,73.6,59.8,28.97,North,0,0.0,0.0,62,0.00,,---,0.00,VWS V14.00,2013-09-28 21:20:00,
2013-09-28 17:26:00,73.6,59.8,28.97,North,0,0.0,0.0,62,0.00,,---,0.00,VWS V14.00,2013-09-28 21:26:00,
2013-09-28 17:32:00,73.6,59.8,28.97,North,0,0.0,0.0,62,0.00,,---,0.00,VWS V14.00,2013-09-28 21:32:00,
2013-09-28 17:38:00,73.4,60.0,28.97,North,0,0.0,0.0,63,0.00,,---,0.00,VWS V14.00,2013-09-28 21:38:00,
2013-09-28 17:44:00,73.4,60.0,28.97,North,0,0.0,0.0,63,0.00,,---,0.00,VWS V14.00,2013-09-28 21:44:00,
2013-09-28 17:50:00,73.4,60.5,28.97,North,0,0.0,0.0,64,0.00,,---,0.00,VWS V14.00,2013-09-28 21:50:00,
2013-09-28 17:56:00,73.4,60.5,28.97,North,0,0.0,0.0,64,0.00,,---,0.00,VWS V14.00,2013-09-28 21:56:00,
2013-09-28 18:02:00,73.2,60.3,28.97,North,0,0.0,0.0,64,0.00,,---,0.00,VWS V14.00,2013-09-28 22:02:00,
2013-09-28 18:08:00,73.0,60.2,28.97,North,0,0.0,0.0,64,0.00,,---,0.00,VWS V14.00,2013-09-28 22:08:00,
2013-09-28 18:14:00,73.0,60.6,28.97,North,0,0.0,0.0,65,0.00,,---,0.00,VWS V14.00,2013-09-28 22:14:00,
2013-09-28 18:20:00,72.9,60.8,28.97,North,0,0.0,0.0,66,0.00,,---,0.00,VWS V14.00,2013-09-28 22:20:00,
2013-09-28 18:26:00,72.9,60.8,28.97,North,0,0.0,0.0,66,0.00,,---,0.00,VWS V14.00,2013-09-28 22:26:00,
2013-09-28 18:32:00,72.5,60.9,28.97,North,0,0.0,0.0,67,0.00,,---,0.00,VWS V14.00,2013-09-28 22:32:00,
2013-09-28 18:38:00,72.3,60.8,28.97,North,0,0.0,0.0,67,0.00,,---,0.00,VWS V14.00,2013-09-28 22:38:00,
2013-09-28 18:44:00,72.0,60.8,28.97,North,0,0.0,0.0,68,0.00,,---,0.00,VWS V14.00,2013-09-28 22:44:00,
2013-09-28 18:50:00,71.8,60.7,28.97,North,0,0.0,0.0,68,0.00,,---,0.00,VWS V14.00,2013-09-28 22:50:00,
2013-09-28 18:56:00,71.6,60.5,28.97,North,0,0.0,0.0,68,0.00,,---,0.00,VWS V14.00,2013-09-28 22:56:00,
2013-09-28 19:03:00,71.4,60.7,28.97,North,0,0.0,0.0,69,0.00,,---,0.00,VWS V14.00,2013-09-28 23:03:00,
2013-09-28 19:09:00,71.2,60.6,28.97,North,0,0.0,0.0,69,0.00,,---,0.00,VWS V14.00,2013-09-28 23:09:00,
2013-09-28 19:15:00,71.1,60.8,28.97,North,0,0.0,0.0,70,0.00,,---,0.00,VWS V14.00,2013-09-28 23:15:00,
2013-09-28 19:21:00,70.9,60.6,28.97,North,0,0.0,0.0,70,0.00,,---,0.00,VWS V14.00,2013-09-28 23:21:00,
2013-09-28 19:27:00,70.7,60.5,28.97,North,0,0.0,0.0,70,0.00,,---,0.00,VWS V14.00,2013-09-28 23:27:00,
2013-09-28 19:33:00,70.5,60.7,28.97,North,0,0.0,0.0,71,0.00,,---,0.00,VWS V14.00,2013-09-28 23:33:00,
2013-09-28 19:39:00,70.3,60.5,28.97,North,0,0.0,0.0,71,0.00,,---,0.00,VWS V14.00,2013-09-28 23:39:00,
2013-09-28 19:45:00,70.0,60.2,28.97,North,0,0.0,0.0,71,0.00,,---,0.00,VWS V14.00,2013-09-28 23:45:00,
2013-09-28 19:51:00,69.8,60.0,28.97,North,0,0.0,0.0,71,0.00,,---,0.00,VWS V14.00,2013-09-28 23:51:00,
2013-09-28 19:57:00,69.6,60.2,28.97,North,0,0.0,0.0,72,0.00,,---,0.00,VWS V14.00,2013-09-28 23:57:00,
2013-09-28 20:03:00,69.4,60.0,28.97,North,0,0.0,0.0,72,0.00,,---,0.00,VWS V14.00,2013-09-29 00:03:00,
2013-09-28 20:09:00,69.3,59.9,29.00,North,0,0.0,0.0,72,0.00,,---,0.00,VWS V14.00,2013-09-29 00:09:00,
2013-09-28 20:15:00,69.1,59.7,29.00,North,0,0.0,0.0,72,0.00,,---,0.00,VWS V14.00,2013-09-29 00:15:00,
2013-09-28 20:21:00,68.7,59.3,29.00,North,0,0.0,0.0,72,0.00,,---,0.00,VWS V14.00,2013-09-29 00:21:00,
2013-09-28 20:27:00,68.7,59.7,29.00,North,0,0.0,0.0,73,0.00,,---,0.00,VWS V14.00,2013-09-29 00:27:00,
2013-09-28 20:33:00,68.4,59.4,29.00,North,0,0.0,0.0,73,0.00,,---,0.00,VWS V14.00,2013-09-29 00:33:00,
2013-09-28 20:39:00,68.4,59.4,28.97,North,0,0.0,0.0,73,0.00,,---,0.00,VWS V14.00,2013-09-29 00:39:00,
2013-09-28 20:45:00,68.0,59.0,28.97,North,0,0.0,0.0,73,0.00,,---,0.00,VWS V14.00,2013-09-29 00:45:00,
2013-09-28 20:51:00,68.0,59.0,29.00,North,0,0.0,0.0,73,0.00,,---,0.00,VWS V14.00,2013-09-29 00:51:00,
2013-09-28 20:57:00,67.8,59.2,29.00,North,0,0.0,0.0,74,0.00,,---,0.00,VWS V14.00,2013-09-29 00:57:00,
2013-09-28 21:03:00,67.8,59.2,29.00,North,0,0.0,0.0,74,0.00,,---,0.00,VWS V14.00,2013-09-29 01:03:00,
2013-09-28 21:09:00,67.6,59.4,29.00,North,0,0.0,0.0,75,0.00,,---,0.00,VWS V14.00,2013-09-29 01:09:00,
2013-09-28 21:15:00,67.6,59.4,29.00,North,0,0.0,0.0,75,0.00,,---,0.00,VWS V14.00,2013-09-29 01:15:00,
2013-09-28 21:21:00,67.5,59.3,29.00,North,0,0.0,0.0,75,0.00,,---,0.00,VWS V14.00,2013-09-29 01:21:00,
2013-09-28 21:27:00,67.5,59.3,29.00,North,0,0.0,0.0,75,0.00,,---,0.00,VWS V14.00,2013-09-29 01:27:00,
2013-09-28 21:33:00,67.5,59.3,29.00,North,0,0.0,0.0,75,0.00,,---,0.00,VWS V14.00,2013-09-29 01:33:00,
2013-09-28 21:39:00,67.3,59.5,29.00,North,0,0.0,0.0,76,0.00,,---,0.00,VWS V14.00,2013-09-29 01:39:00,
2013-09-28 21:45:00,67.3,59.5,29.00,North,0,0.0,0.0,76,0.00,,---,0.00,VWS V14.00,2013-09-29 01:45:00,
2013-09-28 21:51:00,67.3,59.5,29.00,North,0,0.0,0.0,76,0.00,,---,0.00,VWS V14.00,2013-09-29 01:51:00,
2013-09-28 21:57:00,67.1,59.3,29.00,North,0,0.0,0.0,76,0.00,,---,0.00,VWS V14.00,2013-09-29 01:57:00,
2013-09-28 22:03:00,67.1,59.3,29.00,North,0,0.0,0.0,76,0.00,,---,0.00,VWS V14.00,2013-09-29 02:03:00,
2013-09-28 22:09:00,67.1,59.3,29.00,North,0,0.0,0.0,76,0.00,,---,0.00,VWS V14.00,2013-09-29 02:09:00,
2013-09-28 22:15:00,66.9,59.1,29.00,North,0,0.0,0.0,76,0.00,,---,0.00,VWS V14.00,2013-09-29 02:15:00,
2013-09-28 22:21:00,66.9,59.1,29.00,North,0,0.0,0.0,76,0.00,,---,0.00,VWS V14.00,2013-09-29 02:21:00,
2013-09-28 22:27:00,66.9,59.5,29.00,North,0,0.0,0.0,77,0.00,,---,0.00,VWS V14.00,2013-09-29 02:27:00,
2013-09-28 22:33:00,66.9,59.5,29.00,North,0,0.0,0.0,77,0.00,,---,0.00,VWS V14.00,2013-09-29 02:33:00,
2013-09-28 22:39:00,66.7,59.3,29.00,North,0,0.0,0.0,77,0.00,,---,0.00,VWS V14.00,2013-09-29 02:39:00,
2013-09-28 22:45:00,66.7,59.3,29.00,North,0,0.0,0.0,77,0.00,,---,0.00,VWS V14.00,2013-09-29 02:45:00,
2013-09-28 22:51:00,66.7,59.3,29.00,North,0,0.0,0.0,77,0.00,,---,0.00,VWS V14.00,2013-09-29 02:51:00,
2013-09-28 22:57:00,66.6,59.1,29.00,North,0,0.0,0.0,77,0.00,,---,0.00,VWS V14.00,2013-09-29 02:57:00,
2013-09-28 23:03:00,66.6,59.1,29.00,North,0,0.0,0.0,77,0.00,,---,0.00,VWS V14.00,2013-09-29 03:03:00,
2013-09-28 23:09:00,66.6,59.1,29.00,North,0,0.0,0.0,77,0.00,,---,0.00,VWS V14.00,2013-09-29 03:09:00,
2013-09-28 23:15:00,66.6,59.1,29.00,North,0,0.0,0.0,77,0.00,,---,0.00,VWS V14.00,2013-09-29 03:15:00,
2013-09-28 23:21:00,66.4,59.0,29.00,North,0,0.0,0.0,77,0.00,,---,0.00,VWS V14.00,2013-09-29 03:21:00,
2013-09-28 23:27:00,66.4,59.3,29.00,North,0,0.0,0.0,78,0.00,,---,0.00,VWS V14.00,2013-09-29 03:27:00,
2013-09-28 23:33:00,66.4,59.3,29.00,North,0,0.0,0.0,78,0.00,,---,0.00,VWS V14.00,2013-09-29 03:33:00,
2013-09-28 23:39:00,66.2,59.2,29.00,North,0,0.0,0.0,78,0.00,,---,0.00,VWS V14.00,2013-09-29 03:39:00,
2013-09-28 23:45:00,66.2,59.2,29.00,North,0,0.0,0.0,78,0.00,,---,0.00,VWS V14.00,2013-09-29 03:45:00,
2013-09-28 23:52:00,66.2,59.2,29.03,North,0,0.0,0.0,78,0.00,,---,0.00,VWS V14.00,2013-09-29 03:52:00,
2013-09-28 23:58:00,66.0,59.0,29.03,North,0,0.0,0.0,78,0.00,,---,0.00,VWS V14.00,2013-09-29 03:58:00,